Regional Weather Roundup
Issued by NWS

Home | Current Version | Previous Version | Graphics & Text | Print | Product List | Glossary On
Versions: 1 2 3 4 5 6 7 8 9 10 11 12 13 14 15 16 17 18 19 20 21 22 23 24 25 26 27 28 29 30 31 32 33 34 35 36 37 38 39 40 41 42 43 44 45 46 47 48 49 50
000
ASUS43 KMKX 302100
RWRWI

WISCONSIN REGIONAL WEATHER ROUNDUP
NATIONAL WEATHER SERVICE MILWAUKEE/SULLIVAN WI
400 PM CDT THU MAR 30 2017

NOTE: "FAIR" INDICATES FEW OR NO CLOUDS BELOW 12,000 FEET WITH NO
SIGNIFICANT WEATHER AND/OR OBSTRUCTIONS TO VISIBILITY.

WIZ001-002-006>008-014>016-023>028-302200-
NORTHWEST WISCONSIN

CITY           SKY/WX    TMP DP  RH WIND       PRES   REMARKS
SUPERIOR ARPT  SUNNY     39  32  76 E18G25    29.94S WCI  29
ASHLAND        CLOUDY    41  29  62 NE16      29.93F
HAYWARD        CLOUDY    47  30  51 N16G22    29.86F
SIREN          CLOUDY    49  32  51 NE8       29.85F
CUMBERLAND     CLOUDY    45  32  61 E6        29.84S
RICE LAKE      CLOUDY    47  33  57 CALM      29.85F
CHETEK         CLOUDY    45  33  62 E9        29.84F
LADYSMITH      CLOUDY    46  32  59 E12       29.86F
EAU CLAIRE     NOT AVBL
MENOMONIE      CLOUDY    46  35  67 NE17      29.82F
NEW RICHMOND   CLOUDY    46  32  58 NE12G17   29.83F
OSCEOLA        CLOUDY    48  35  60 NE10      29.86F
$$

WIZ003>005-009-010-017-018-302200-
NORTH CENTRAL WISCONSIN

CITY           SKY/WX    TMP DP  RH WIND       PRES   REMARKS
MANITOWISH WTR CLOUDY    44  30  58 E10       29.88S
ARBOR VITAE    CLOUDY    43  32  65 SE8G16    29.87F
WOODRUFF       CLOUDY    43  32  65 SE8G16    29.87F
RHINELANDER    CLOUDY    39  33  79 E13       29.87F WCI  31
EAGLE RIVER    LGT RAIN  39  31  72 E13       29.88F WCI  32
LAND O LAKES   CLOUDY    41  31  68 SE9       29.91F
PHILLIPS       CLOUDY    44  31  62 E12G18    29.85F
TOMAHAWK       CLOUDY    40  32  73 E9G16     29.86F WCI  34
MEDFORD        CLOUDY    39  34  83 E14       29.81F WCI  31
MERRILL        LGT RAIN  38  37  96 E10       29.86F WCI  31
$$

WIZ029-030-035-036-043>047-302200-
CENTRAL WISCONSIN

CITY           SKY/WX    TMP DP  RH WIND       PRES   REMARKS
WAUSAU         CLOUDY    36  34  92 NE15G22   29.81F WCI  27
MOSINEE        CLOUDY    37  36  93 NE18G24   29.83F WCI  27
MARSHFIELD     CLOUDY    37  34  89 NE17      29.78F FOG     WCI  27
STEVENS POINT  LGT RAIN  34  34 100 NE14G23   29.83F WCI  25
WAUPACA        DRIZZLE   37  35  90 NE14      29.83F WCI  29
WAUTOMA        LGT RAIN  35  34  96 NE22G28   29.76F WCI  23
WISC RAPIDS    CLOUDY    38  36  92 E20       29.80F WCI  28
CAMP DOUGLAS   NOT AVBL
$$

WIZ011>013-019>022-031-037>040-048>050-302200-
NORTHEAST WISCONSIN

CITY           SKY/WX    TMP DP  RH WIND       PRES   REMARKS
ANTIGO         FLURRIES  34  33  97 E13G18    29.86F WCI  25
SHAWANO        CLOUDY    37  34  88 NE13G21   29.88F WCI  29
OCONTO         CLOUDY    34  32  94 NE10G16   29.89F WCI  26
STURGEON BAY   FLURRIES  34  33  96 NE14      29.87F WCI  25
GREEN BAY      LGT RAIN  35  35 100 NE18G28   29.85F WCI  24
MANITOWOC      NOT AVBL
APPLETON       CLOUDY    36  34  93 NE16G25   29.80F FOG     WCI  26
CLINTONVILLE   DRIZZLE   36  34  93 NE13G18   29.86F WCI  27
OSHKOSH        CLOUDY    37  34  89 NE17      29.79F WCI  27
$$

WIZ032>034-041-042-053>061-302200-
SOUTHWEST WISCONSIN

CITY           SKY/WX    TMP DP  RH WIND       PRES   REMARKS
LA CROSSE      CLOUDY    42  35  76 E12       29.76F
SPARTA         CLOUDY    38  36  90 NE10G16   29.78F WCI  31
VIROQUA        CLOUDY    38  37  97 NE15      29.71F WCI  29
BOSCOBEL       CLOUDY    41  37  86 VRB7      29.70F
PRAIRIE DU CHI CLOUDY    40  39  97 NE8G18    29.69F FOG     WCI  34
PLATTEVILLE    CLOUDY    40  40 100 NE13      29.65F WCI  32
$$

WIZ056-057-062-063-064-067-068-302200-
SOUTH CENTRAL WISCONSIN

CITY           SKY/WX    TMP DP  RH WIND       PRES   REMARKS
REEDSBURG      CLOUDY    37  37  99 NE14G20   29.73R WCI  29
BARABOO/DELLS  CLOUDY    37  36  93 NE12G21   29.72S WCI  30
LONE ROCK      CLOUDY    41  36  82 NE14      29.69F
MINERAL POINT  CLOUDY    39  39 100 NE15      29.66R WCI  31
MADISON        CLOUDY    40  37  89 NE23G30   29.63F WCI  30
MIDDLETON      CLOUDY    40  40  98 NE22G33   29.64F WCI  30
WATERTOWN      LGT RAIN  38  38 100 NE14      29.71F WCI  30
MONROE         CLOUDY    37  37 100 NE15      29.64R WCI  28
JANESVILLE     CLOUDY    41  41 100 NE13G24   29.65S
$$

WIZ051-052-058>065-066-070>072-302200-
SOUTHEAST WISCONSIN

CITY           SKY/WX    TMP DP  RH WIND       PRES   REMARKS
MILWAUKEE      LGT RAIN  40  37  89 NE14      29.72F FOG     WCI  32
WAUKESHA       RAIN      36  36 100 E20G28    29.72F FOG     WCI  25
MILWAUKEE/TIMM RAIN      37  36  93 NE12G18   29.76F FOG     WCI  30
RACINE         LGT RAIN  39  37  92 NE22      29.66F FOG     WCI  29
KENOSHA        CLOUDY    40  38  93 NE24G35   29.62F FOG     WCI  29
FOND DU LAC    HVY RAIN  39  35  86 NE12      29.79R FOG     WCI  32
SHEBOYGAN      LGT RAIN  38  35  89 NE20G28   29.80R FOG     WCI  28
WEST BEND      LGT RAIN  37  37 100 NE13      29.76S WCI  29
JUNEAU         LGT RAIN  38  37  96 NE12      29.77R WCI  30
$$

LSZ147-162-302200-
LAKE SUPERIOR

STATION/POSITION TIME  TEMP    WIND        PRES    WAVE
                       AIR SEA DIR/SP/G            HT/PER
                 (UTC) (F)     (DEG/KT/KT) (MB)    (FT/S)
DEVILS ISLAND    2000   35      40/ 17/ 19 1015.4F
PORT WING        2040   36      30/ 21/ 24 1013.9S
SAXON HARBOR     2040   36     360/  6/  9 1013.5F
$$

LMZ867-665-643>646-302200-
LAKE MICHIGAN

STATION/POSITION TIME  TEMP    WIND        PRES    WAVE
                       AIR SEA DIR/SP/G            HT/PER
                 (UTC) (F)     (DEG/KT/KT) (MB)    (FT/S)
CHAMBERS ISLAND  2040   33      30/ 14/ 18 1012.9F
NORTHPORT PIER   2040   34      60/ 18/ 21 1013.2F
SISTER BAY       2006   35      80/ 10/ 18   N/A
KEWAUNEE LAKESHO 2030   36      40/ 15/ 21 1010.0F
SHEBOYGAN LAKESH 2000   37      20/ 23/ 25 1007.8F
PORT WASHINGTON  2030   38      40/ 13/ 16 1009.5S
MILWAUKEE LAKESH 2030   37      30/ 11/ 12   N/A
KENOSHA   LAKESH 2000   39      40/ 10/ 12 1006.8
$$

TC  - TEMPERATURE IN CELSIUS
VSB - VISIBILITY IN STATUTE MILES
WCI - WIND CHILL INDEX
HX  - HEAT INDEX





USA.gov is the U.S. government's official web portal to all federal, state and local government web resources and services.